Weather History for KHJO - December, 2013

Change the Weather History Date:

Monday, December 23, 2013

  Actual Average Record
Temperature  
Mean Temperature 48 °F 44 °F  
Max Temperature 65 °F 53 °F 65 °F (2013)
Min Temperature 31 °F 35 °F 19 °F (1998)
Degree Days  
Heating Degree Days 17    
Month to date heating degree days 500  
Since 1 July heating degree days 880  
Cooling Degree Days 0    
Month to date cooling degree days 0  
Year to date cooling degree days 2057  
Moisture  
Dew Point 32 °F    
Average Humidity 62    
Maximum Humidity 92    
Minimum Humidity 31    
Precipitation  
Precipitation 0.00 in 0.07 in 0.45 in (2012)
Month to date precipitation 0.12 0.96  
Year to date precipitation 1.99 9.43  
Since 1 July precipitation 0.39 2.67  
Snow  
Snow 0.00 in - - ()
Month to date snowfall 0.0  
Since 1 July snowfall 0.0  
Snow Depth 0.00 in    
Sea Level Pressure  
Sea Level Pressure 30.37 in    
Wind  
Wind Speed 2 mph (East)    
Max Wind Speed 7 mph    
Max Gust Speed 8 mph    
Visibility 4 miles    
Events      
T = Trace of Precipitation, MM = Missing Value Source: NWS Daily Summary

Daily Weather History Graph

Daily Weather History Graph

Search for Another Location

Airport or City:

Trip Planner

Search our weather history database for the weather conditions in past years. The results will help you decide how hot, cold, wet, or windy it might be!

Date:

Astronomy

Dec. 23, 2013 Rise Set
Actual Time 7:07 AM PST 4:48 PM PST
Civil Twilight 6:38 AM PST 5:17 PM PST
Nautical Twilight 6:06 AM PST 5:49 PM PST
Astronomical Twilight 5:34 AM PST 6:20 PM PST
Moon 10:52 PM PST (12/23) 10:44 AM PST (12/23)
Length of Visible Light 10h 38m
Length of Day
9h 41m
Waning Gibbous, 67% of the Moon is Illuminated
Dec 23
Waning Gibbous
Dec 25
Last Quarter
Jan 1
New
Jan 7
First Quarter
Jan 15
Full

Hourly Weather History & Observations

Time (PST) Temp. Windchill Dew Point Humidity Pressure Visibility Wind Dir Wind Speed Gust Speed Precip Events Conditions
12:53 AM 35.1 °F - 28.0 °F 76% 30.35 in 4.0 mi Calm Calm - N/A   Haze
1:53 AM 35.1 °F - 28.9 °F 78% 30.35 in 4.0 mi Calm Calm - N/A   Haze
2:53 AM 34.0 °F - 28.9 °F 82% 30.36 in 4.0 mi Calm Calm - N/A   Haze
3:53 AM 33.1 °F 30.0 °F 28.0 °F 82% 30.36 in 4.0 mi ENE 3.5 mph - N/A   Haze
4:53 AM 30.9 °F 27.5 °F 28.0 °F 89% 30.37 in 2.5 mi SE 3.5 mph - N/A   Clear
5:07 AM 32.0 °F 28.7 °F 28.0 °F 85% 30.36 in 3.0 mi SSE 3.5 mph - N/A   Clear
5:53 AM 34.0 °F - 30.9 °F 89% 30.37 in 3.0 mi Calm Calm - N/A   Clear
6:51 AM 32.0 °F 28.7 °F 28.4 °F 87% 30.38 in 2.5 mi SSE 3.5 mph - N/A   Clear
6:53 AM 32.0 °F 28.7 °F 28.9 °F 88% 30.39 in 2.5 mi SSE 3.5 mph - N/A   Clear
7:53 AM 33.1 °F 30.0 °F 30.0 °F 89% 30.42 in 2.5 mi East 3.5 mph - N/A   Clear
8:09 AM 36.0 °F 33.3 °F 30.9 °F 82% 30.41 in 3.0 mi ESE 3.5 mph - N/A   Haze
8:53 AM 39.9 °F - 32.0 °F 73% 30.42 in 4.0 mi Calm Calm - N/A   Haze
9:53 AM 48.0 °F - 34.0 °F 58% 30.44 in 4.0 mi Calm Calm - N/A   Haze
10:43 AM 52.0 °F - 35.1 °F 53% 30.42 in 2.0 mi NE 3.5 mph - N/A   Haze
10:53 AM 53.1 °F - 34.0 °F 48% 30.43 in 4.0 mi Variable 3.5 mph - N/A   Haze
11:53 AM 57.9 °F - 34.0 °F 41% 30.40 in 5.0 mi Calm Calm - N/A   Haze
12:53 PM 61.0 °F - 33.1 °F 35% 30.37 in 5.0 mi Calm Calm - N/A   Haze
1:53 PM 63.0 °F - 33.1 °F 33% 30.35 in 5.0 mi South 3.5 mph - N/A   Haze
2:34 PM 64.9 °F - 33.1 °F 31% 30.33 in 2.5 mi ENE 4.6 mph - N/A   Haze
2:43 PM 64.9 °F - 34.0 °F 32% 30.33 in 5.0 mi Calm Calm - N/A   Haze
2:53 PM 64.9 °F - 34.0 °F 32% 30.33 in 5.0 mi Variable 3.5 mph - N/A   Haze
3:53 PM 64.0 °F - 36.0 °F 35% 30.34 in 5.0 mi ENE 4.6 mph - N/A   Haze
4:53 PM 59.0 °F - 35.1 °F 41% 30.34 in 5.0 mi Calm Calm - N/A   Haze
5:53 PM 51.1 °F - 34.0 °F 52% 30.35 in 6.0 mi Calm Calm - N/A   Haze
6:53 PM 53.1 °F - 35.1 °F 50% 30.36 in 6.0 mi NW 5.8 mph - N/A   Haze
7:53 PM 51.1 °F - 35.1 °F 54% 30.36 in 5.0 mi NW 5.8 mph - N/A   Haze
8:53 PM 48.9 °F - 36.0 °F 61% 30.36 in 5.0 mi NW 4.6 mph - N/A   Haze
9:53 PM 46.9 °F - 36.0 °F 66% 30.36 in 5.0 mi NW 4.6 mph - N/A   Haze
10:53 PM 39.0 °F 36.8 °F 32.0 °F 76% 30.37 in 4.0 mi NE 3.5 mph - N/A   Haze
11:53 PM 39.0 °F - 32.0 °F 76% 30.37 in 4.0 mi Calm Calm - N/A   Haze